Location: Unspecified
(35.6961°N, 0.0000°E)
Time: 17:32:11
(UTC+00:00)

Explorer 11/Cluster Stage 4 - Pass Details

Date: 31 May 2019
Orbit: 467 x 1260 km, 28.8° (Epoch: 24 June)

Event Time Altitude Azimuth Distance (km) Brightness Sun altitude
Rises 03:58:03 0° 266° (W) 3,600 - -9.1°
Exits shadow 04:00:44 - 258° (WSW) 2,688 8.7 -8.7°
Reaches altitude 10° 04:01:20 10° 255° (WSW) 2,498 8.6 -8.6°
Maximum altitude 04:06:04 25° 201° (SSW) 1,465 7.5 -7.8°
Drops below altitude 10° 04:10:03 10° 146° (SE) 2,062 8.8 -7.1°
Sets 04:12:30 0° 132° (SE) 2,851 9.7 -6.7°
